Theta_e
301 295 292 292 295 297 298 297 298 299 295 293 293 293 292 292 293 295 296 298 297 293 293 294 295 295 296 298 299 300 301 300 300 299 300 301 301 302 303 304 305 305 304 307 309 310 310 310 309 309 308 306 305 305 305 306 307 308 308 309 308 308 308 307 307 309 310 310 310 310 310 309 310 310 310 310 310 310 310 309 308 307 305 304 303 303
297 294 294 297 298 299 299 299 297 296 295 293 293 293 292 293 291 296 295 297 296 292 292 294 293 294 295 297 298 300 299 298 299 300 300 301 302 303 303 304 304 304 307 309 309 307 308 307 308 308 307 305 304 305 303 304 306 307 308 307 308 308 307 306 306 307 308 310 310 309 309 309 309 308 307 307 308 308 309 308 307 306 305 304 303 302
293 291 296 299 300 295 295 294 294 294 294 294 292 293 292 292 295 296 296 297 295 291 292 294 292 293 295 296 298 299 299 299 300 301 300 301 302 303 304 303 302 303 305 306 306 308 306 308 308 306 306 306 304 304 304 304 305 306 307 307 307 308 307 306 306 306 306 308 309 309 308 307 307 308 308 308 308 307 306 306 306 305 305 304 303 302
291 294 297 300 298 295 293 293 293 293 293 292 293 291 289 294 291 290 293 291 292 292 291 292 290 292 295 298 299 300 299 300 301 302 302 303 302 302 301 301 301 303 305 304 305 305 305 307 306 306 304 303 305 304 304 303 303 304 305 306 307 307 307 306 306 305 307 307 308 308 307 306 307 305 305 305 305 304 304 303 304 304 304 303 302 302
295 296 297 297 297 295 294 294 292 292 292 295 293 292 292 292 293 292 292 294 294 295 293 292 292 295 298 297 298 298 297 298 300 301 302 303 303 303 304 303 303 303 303 304 304 304 304 304 304 304 304 305 304 304 304 303 303 302 303 305 306 306 306 306 306 305 306 305 305 305 304 304 303 303 302 302 302 303 302 302 302 302 303 303 302 302
295 296 296 294 294 294 293 292 292 294 291 293 296 293 293 294 292 293 294 292 290 290 292 291 288 291 295 296 297 300 300 300 301 300 301 301 302 301 300 301 303 304 304 303 302 303 303 303 304 303 303 303 302 301 301 302 302 302 303 304 305 305 305 305 305 305 305 304 303 302 301 299 299 299 300 299 300 300 300 300 302 302 301 302 302 301
295 296 295 295 295 293 292 292 295 294 291 290 292 296 294 293 293 293 292 291 287 286 290 292 286 284 294 294 296 298 298 299 302 302 300 301 301 301 301 302 302 303 303 305 303 302 301 301 302 301 301 301 300 299 301 302 302 302 302 303 304 304 305 305 305 305 304 304 303 303 302 302 301 300 301 302 302 301 301 302 301 300 301 301 301 301
292 292 292 294 293 293 292 290 294 293 291 289 296 293 294 293 292 292 291 290 289 292 292 290 291 286 287 293 297 298 297 298 300 301 303 301 299 299 300 301 302 302 303 302 301 300 300 300 299 299 300 300 299 299 300 301 301 301 301 302 303 303 303 304 304 304 304 303 303 303 302 302 302 302 302 302 301 302 301 300 300 300 300 300 300 300
292 292 292 292 292 291 291 295 298 295 292 292 291 292 292 292 292 291 290 290 289 286 286 288 291 286 287 293 293 294 294 297 299 300 300 299 298 299 299 300 300 300 300 299 299 299 299 298 298 298 298 299 299 300 299 299 300 301 301 302 302 302 303 303 303 303 303 303 303 303 303 302 302 303 303 303 302 301 300 299 299 299 299 299 299 300
291 292 295 296 293 291 295 293 294 295 292 293 291 292 291 292 291 291 290 289 288 286 284 287 291 286 288 296 294 293 293 295 298 299 298 296 297 298 299 298 298 298 299 299 298 298 297 297 297 297 298 297 298 298 299 299 299 300 300 300 301 301 301 302 302 302 302 303 302 302 302 302 302 302 302 302 301 301 301 299 299 299 298 298 298 298
292 293 293 294 293 296 294 289 289 293 291 291 294 293 292 292 291 289 290 289 287 283 286 290 291 290 285 294 295 295 296 296 297 298 296 296 297 296 297 296 296 296 296 296 296 295 295 296 295 296 295 296 296 297 297 297 298 298 298 298 299 299 300 300 301 301 301 302 302 301 302 302 302 302 302 301 300 300 299 298 299 298 298 298 297 297
292 292 292 295 294 292 295 292 291 290 291 293 291 290 291 289 288 288 287 288 283 284 288 291 291 291 284 290 294 296 296 295 296 295 298 295 294 294 294 294 294 294 294 293 293 293 293 293 294 294 294 294 295 295 295 296 297 297 297 297 297 297 298 298 299 300 300 301 301 301 301 301 301 301 301 300 300 300 299 299 298 298 298 297 297 297
290 291 294 295 295 294 294 292 291 292 292 291 290 289 285 284 286 283 284 281 283 284 285 286 288 286 286 293 295 297 299 298 296 296 295 294 293 292 292 293 293 292 292 291 291 291 291 291 291 292 292 293 293 293 294 294 295 296 295 295 295 295 296 297 297 298 299 300 300 300 300 300 300 300 300 300 300 300 299 299 298 298 297 297 296 296
293 291 291 294 293 295 296 289 290 288 290 290 288 287 285 282 282 279 284 284 283 286 284 286 289 284 291 293 297 297 300 295 295 294 294 293 292 291 292 292 291 291 291 290 290 290 290 290 290 291 291 292 292 293 293 293 294 294 294 294 294 294 295 296 296 297 297 298 299 299 299 299 299 299 299 299 299 299 299 299 298 298 297 297 296 296
286 289 292 292 293 296 294 294 294 295 290 290 294 291 289 288 284 280 283 281 283 286 285 287 285 284 286 292 294 296 297 294 294 294 293 293 292 292 291 291 290 290 290 290 289 289 289 289 290 290 291 291 291 292 292 293 293 294 294 294 293 293 294 294 294 296 296 296 297 298 298 299 299 299 298 299 299 299 299 298 298 298 298 297 298 297
289 290 297 297 296 295 293 296 294 291 288 289 290 291 286 286 292 283 286 285 285 286 285 283 285 290 291 297 297 297 296 293 293 292 292 291 291 290 289 288 288 288 288 289 288 288 289 289 289 289 290 290 291 291 292 292 292 293 293 293 293 293 293 293 293 294 294 295 296 296 297 297 298 298 298 298 298 298 298 298 298 297 298 298 298 298
291 288 298 292 290 294 295 294 293 297 287 288 287 285 289 294 291 286 286 286 285 284 282 290 288 291 297 297 299 299 294 293 292 290 290 289 289 288 286 286 285 286 286 287 288 288 288 288 288 289 289 289 289 289 290 290 291 292 292 292 292 292 293 293 293 293 293 294 294 295 295 296 296 297 297 297 298 298 298 298 298 297 297 298 298 298
289 290 294 293 290 294 290 292 295 294 295 289 284 288 290 293 293 288 280 283 281 279 281 288 285 288 289 286 294 294 293 292 290 288 287 287 286 285 285 284 285 285 286 286 287 287 287 287 287 287 288 288 288 288 288 289 290 291 292 291 291 291 291 292 292 293 293 292 293 293 294 294 295 295 296 296 297 297 297 297 297 297 297 297 297 297
296 287 294 297 298 293 290 293 292 295 295 292 291 294 288 284 282 286 283 275 277 277 280 285 288 288 290 290 292 292 293 292 289 287 285 283 283 283 283 284 284 284 285 285 285 285 285 286 286 287 287 288 288 288 288 289 290 290 290 291 291 290 291 291 292 292 292 292 293 293 293 293 293 294 295 295 296 296 296 296 296 296 296 297 297 296
294 287 290 291 294 294 292 291 286 290 293 292 293 291 293 289 287 284 284 284 285 278 280 280 286 283 293 293 295 292 291 291 289 286 283 283 283 283 283 283 283 284 284 284 285 285 285 285 285 286 286 287 287 288 288 289 289 288 289 289 290 290 291 291 291 291 290 291 292 292 292 292 292 293 293 293 294 294 295 295 296 296 295 296 296 295
290 294 284 290 290 293 288 291 288 292 287 287 288 287 288 287 290 289 286 284 283 281 280 280 279 286 292 293 292 289 288 288 286 284 284 283 283 283 283 283 284 284 284 284 284 284 284 285 285 285 286 287 287 288 288 288 288 288 289 288 289 289 289 289 290 290 290 291 291 290 290 290 290 291 292 292 292 292 293 294 294 294 295 295 294 295
288 288 284 288 288 288 291 297 294 294 294 292 290 287 289 286 283 281 279 288 283 283 278 279 277 286 292 292 289 287 288 286 286 285 285 284 284 284 284 284 284 284 284 284 285 285 285 285 285 285 286 287 287 287 287 288 288 288 288 288 288 288 289 288 289 289 289 289 290 290 289 289 289 289 290 290 291 291 291 292 292 293 294 293 294 294
291 289 285 284 288 290 294 295 293 294 294 293 292 289 293 291 290 284 277 282 284 284 286 284 281 283 288 288 288 287 287 286 286 286 285 284 284 285 285 285 285 285 284 284 284 285 286 286 286 286 286 286 287 287 288 288 288 288 288 288 288 288 288 289 289 289 289 289 289 289 289 289 289 289 289 289 290 289 290 290 291 292 292 292 293 293
291 287 285 286 291 294 295 295 294 292 294 292 292 293 292 288 289 287 286 287 285 285 282 282 279 283 287 286 286 285 285 285 285 285 284 283 284 284 284 284 284 285 285 285 286 286 286 287 287 287 286 286 286 287 287 288 288 288 288 288 288 288 288 288 289 289 289 289 288 289 288 288 288 288 288 288 289 288 289 290 290 291 291 291 292 292
288 288 286 282 283 286 289 292 291 292 292 288 288 291 291 292 290 289 286 286 281 283 285 282 277 284 287 285 285 284 284 283 283 283 284 283 283 284 284 284 285 285 285 285 286 286 286 287 286 286 286 286 286 286 287 287 287 287 288 287 287 287 288 288 288 288 288 289 288 288 288 287 287 287 287 287 288 288 288 289 289 290 289 290 290 290
288 287 285 279 276 275 276 278 280 283 285 287 288 288 289 288 287 286 283 285 280 284 285 282 281 288 289 285 284 285 284 283 283 282 282 282 282 282 283 284 284 284 284 284 285 285 285 286 286 286 286 286 286 286 286 287 287 287 287 287 288 287 288 288 288 288 288 288 288 287 287 287 287 287 287 287 287 287 287 287 288 289 289 289 289 289
287 287 286 285 282 280 282 284 287 287 285 282 285 286 285 286 286 285 284 280 278 282 280 283 283 284 286 289 290 289 284 282 281 281 281 281 281 282 282 283 283 284 284 284 284 285 285 285 285 285 286 286 285 285 286 286 286 286 286 286 287 287 287 288 288 287 287 287 287 287 286 286 286 286 286 286 287 287 287 287 287 287 287 288 288 288
286 284 286 285 285 286 287 287 287 284 282 283 283 283 286 285 285 282 280 278 284 279 275 283 285 283 283 287 288 289 285 283 282 282 282 282 283 283 283 283 283 283 283 284 284 285 284 285 285 285 286 286 286 286 286 286 286 286 286 286 286 287 287 288 287 287 286 286 286 286 286 286 286 286 286 286 286 287 287 287 287 287 287 287 287 287
285 282 285 286 284 287 287 285 286 284 283 283 283 282 282 284 283 280 281 283 283 279 276 282 284 281 284 286 287 286 283 282 282 281 283 283 283 283 283 283 283 283 283 283 284 284 284 285 285 285 285 286 286 285 285 286 286 286 286 286 286 286 286 287 286 286 286 286 285 286 286 286 286 286 286 286 286 286 286 286 286 286 287 287 287 288
285 282 284 284 282 283 284 285 285 283 282 282 282 282 283 282 282 282 281 282 282 280 282 282 282 282 285 286 283 280 282 281 281 283 284 283 282 283 283 283 283 283 283 283 284 284 285 285 286 286 286 285 285 285 285 285 286 286 286 286 286 286 286 286 285 286 285 285 285 286 286 286 286 286 286 285 285 285 285 286 286 286 286 286 286 287
285 280 284 280 280 279 282 284 284 283 282 279 281 281 281 281 281 282 281 281 282 281 281 281 280 280 285 283 284 283 282 283 283 281 282 282 283 283 283 283 284 283 283 283 284 284 285 285 286 286 286 285 285 285 285 286 286 286 286 286 286 286 286 286 285 285 285 285 285 286 286 286 285 285 285 285 285 285 285 285 285 285 285 285 285 285
285 279 284 280 277 276 280 280 281 280 279 277 277 278 279 279 277 279 279 282 280 278 280 280 278 279 282 280 279 282 280 281 280 281 281 282 283 283 282 283 284 284 284 284 284 284 285 285 286 286 286 286 286 286 285 286 286 286 285 286 286 286 286 285 285 285 285 285 285 285 285 285 285 285 284 285 284 284 284 285 284 284 285 285 285 285
282 280 278 278 274 274 279 280 277 276 275 272 274 277 279 280 281 282 283 283 282 282 278 275 277 282 280 282 279 280 280 280 281 281 281 282 283 283 282 283 283 284 285 285 284 284 285 285 286 286 286 287 287 286 286 286 285 285 286 285 286 286 285 285 285 285 284 285 284 284 285 285 284 284 284 284 284 284 284 284 284 284 284 284 285 285
282 280 278 280 273 273 277 274 274 272 266 269 281 283 282 279 280 278 278 280 282 283 281 282 280 279 281 281 279 278 278 279 280 281 283 282 282 283 284 284 284 284 285 285 285 284 284 285 286 286 287 287 287 287 287 286 285 286 286 286 286 285 285 285 284 284 284 284 284 284 284 284 284 283 283 283 283 283 283 283 283 284 284 284 285 284
278 278 277 278 274 272 272 270 271 265 267 277 280 283 281 282 282 281 281 282 282 281 280 280 279 279 280 280 279 280 280 281 282 282 283 284 284 283 283 284 284 285 285 286 285 285 285 285 285 286 286 287 287 287 286 286 286 286 285 285 285 285 284 284 284 283 283 283 283 283 283 283 283 282 282 282 282 282 282 282 283 283 283 283 283 283
277 276 276 273 275 272 271 270 263 264 275 275 279 281 282 281 281 279 277 280 281 282 282 281 281 279 280 280 281 282 281 282 283 284 284 285 285 284 284 283 284 285 285 286 286 285 285 285 285 286 286 287 287 286 286 285 285 284 284 285 284 284 284 283 283 282 283 282 282 282 282 282 282 282 281 281 280 280 280 281 281 282 283 283 283 283
280 276 276 272 276 268 270 270 269 275 273 275 276 280 278 278 279 277 273 277 280 281 282 281 281 280 280 280 280 281 282 282 280 281 284 284 285 286 285 285 285 285 286 287 287 286 286 286 286 287 287 287 287 286 285 285 284 283 283 283 283 283 283 282 282 282 282 281 282 282 282 282 281 281 280 280 279 279 279 279 280 281 282 281 281 282
281 276 277 272 269 275 267 268 269 268 264 271 277 278 281 280 281 279 277 273 281 279 280 279 277 278 279 279 279 280 281 278 275 278 282 284 284 285 285 285 286 286 286 286 287 287 287 287 287 287 286 285 285 285 284 283 283 282 281 281 282 281 281 281 281 281 281 281 281 281 281 281 281 280 279 279 278 277 278 278 279 279 280 279 280 280
280 280 278 275 271 273 270 267 266 264 267 277 277 280 280 281 281 280 276 270 278 276 278 278 278 279 279 278 278 280 277 273 274 278 282 283 283 284 283 283 284 284 285 285 286 285 285 284 284 283 283 282 281 282 282 281 281 280 280 280 280 280 280 280 280 280 280 280 281 281 281 280 280 279 278 277 277 277 277 277 277 278 278 278 279 280
274 276 275 272 271 271 270 268 266 272 269 274 273 278 279 278 282 276 266 267 275 275 276 277 276 277 278 279 279 278 276 273 275 279 283 283 283 283 283 282 283 283 283 284 284 284 282 282 280 280 280 279 279 280 280 280 279 278 278 278 279 278 278 279 279 280 280 280 280 279 279 279 278 277 276 276 276 276 276 276 276 276 276 277 277 278
271 271 273 269 271 271 271 269 271 271 277 276 275 279 279 281 277 268 264 273 276 276 277 277 278 279 279 278 279 276 279 280 281 282 283 283 283 283 283 283 283 283 282 282 281 281 279 279 279 278 278 278 279 279 279 278 277 276 277 277 276 276 277 278 279 278 278 278 278 278 278 277 276 275 275 275 274 274 274 275 274 274 274 274 274 275
266 267 268 270 269 269 270 268 268 272 278 280 281 281 280 276 267 268 276 278 279 279 279 278 278 279 279 279 279 279 280 282 282 282 282 282 281 281 282 282 281 280 280 280 279 279 278 277 277 277 277 278 278 277 277 276 275 274 274 274 273 274 276 276 276 276 275 275 275 275 275 274 274 274 273 273 273 272 272 273 273 273 272 273 273 272
270 266 267 268 269 269 269 267 266 262 274 278 279 277 280 272 274 277 278 280 280 279 280 279 279 280 280 279 280 280 280 280 280 280 280 280 280 280 279 278 277 277 277 277 277 277 276 275 275 275 275 275 275 275 274 273 272 272 272 271 272 273 273 273 273 273 273 273 272 272 272 272 272 272 272 271 271 271 270 271 271 271 271 271 271 271
276 268 269 269 272 267 267 264 265 273 277 279 278 273 278 279 281 281 280 278 281 281 280 280 280 280 280 278 278 279 279 279 279 279 279 279 279 278 277 277 277 276 276 276 276 275 274 273 273 272 272 272 272 272 272 271 269 269 269 269 271 271 271 271 271 271 269 269 269 270 270 270 270 270 270 270 270 269 268 268 269 269 269 269 270 270
276 271 274 270 274 270 269 272 276 279 279 280 280 279 281 282 283 282 281 280 279 280 281 279 279 279 277 277 277 278 277 278 278 277 276 276 276 275 275 275 275 274 274 274 273 273 271 270 269 269 269 270 269 269 269 268 267 267 266 267 268 268 267 267 266 265 265 265 266 266 267 267 268 268 268 268 268 267 267 267 267 267 268 268 268 269
279 279 279 275 273 278 279 279 280 280 280 280 282 282 281 281 282 282 281 279 281 280 279 278 278 277 276 276 275 276 276 276 275 275 275 274 274 274 274 274 274 273 273 272 271 270 268 268 267 267 266 266 267 266 266 265 264 262 263 264 264 264 264 263 262 262 262 262 263 263 264 264 264 265 266 266 266 266 266 266 266 266 266 267 267 268
277 278 274 272 275 273 268 278 277 278 280 280 280 282 283 282 281 281 280 280 279 277 276 275 275 275 274 273 273 274 274 274 273 273 273 273 272 272 272 271 271 271 270 268 268 267 266 265 264 263 263 262 263 263 263 262 262 261 262 261 261 261 261 260 260 259 260 260 261 261 262 262 262 263 263 264 264 265 265 265 265 265 266 266 266 267
272 279 273 274 274 272 272 276 278 280 280 281 280 279 280 281 281 278 278 276 276 274 274 274 273 273 273 272 273 272 272 272 271 271 271 271 270 270 270 269 269 268 268 267 266 265 263 262 261 260 260 260 261 261 260 260 260 260 260 260 260 260 259 259 258 258 258 258 259 259 260 260 261 261 262 262 263 263 263 264 265 264 264 265 266 266
276 277 270 273 272 274 277 278 278 279 279 279 280 281 281 281 280 276 274 273 273 272 272 271 272 271 271 271 271 270 269 270 270 269 269 269 268 268 267 267 266 266 265 264 263 262 261 260 259 259 258 258 260 260 259 259 259 260 260 260 260 259 258 258 258 258 258 258 258 258 259 260 260 260 260 261 261 262 263 263 263 263 264 265 267 267
276 272 275 273 270 270 271 274 277 272 272 277 279 280 279 274 276 274 272 272 271 271 270 269 269 270 269 269 269 268 267 267 268 268 266 266 266 266 265 265 264 263 262 262 261 260 259 259 258 258 258 258 259 259 259 258 259 259 259 259 259 259 258 257 257 257 257 258 258 258 259 259 259 259 260 260 260 260 261 264 267 266 264 264 268 270
274 275 276 272 271 271 276 278 279 279 278 279 280 274 273 272 273 273 272 271 270 269 268 268 267 267 267 267 268 266 266 266 265 266 264 264 264 264 263 262 261 261 260 260 259 258 258 258 258 258 257 258 258 258 258 258 258 258 259 259 259 258 258 257 257 257 257 257 257 258 258 258 258 259 259 259 259 259 259 260 261 266 268 269 269 269
Wind_Speed
3 9 9 10 14 14 14 17 19 15 4 5 4 7 12 12 13 14 16 13 3 9 14 18 21 20 18 15 13 14 17 20 22 24 18 14 13 15 16 12 5 3 4 3 8 7 6 7 5 5 4 4 4 5 5 6 8 9 9 8 10 9 10 9 9 9 10 10 10 10 11 11 9 10 10 10 10 10 10 11 12 12 12 12 13 13
2 10 11 16 16 11 9 8 8 10 9 10 11 10 13 8 16 13 14 6 1 6 9 8 18 19 18 18 18 19 20 23 24 20 16 18 18 15 14 5 5 5 3 8 7 6 4 4 6 5 3 3 5 3 3 6 6 7 8 9 8 7 9 10 10 9 9 10 10 9 9 9 8 9 10 10 10 10 8 9 10 10 11 11 12 11
8 11 12 16 9 6 3 2 1 7 11 12 10 11 10 12 14 14 15 11 3 1 11 8 18 16 18 22 23 20 19 17 17 16 19 19 18 12 6 6 7 6 7 6 6 5 6 6 7 6 5 5 4 5 4 4 4 5 6 8 8 7 9 9 10 9 9 9 9 8 6 8 7 6 7 7 7 8 8 8 9 9 10 11 10 11
8 8 15 14 3 4 3 1 3 6 7 9 9 7 12 5 5 9 4 2 2 1 13 15 20 17 19 20 16 12 11 15 14 16 17 19 14 6 8 6 6 3 3 5 6 8 8 8 8 8 9 8 5 5 4 3 4 4 5 6 7 7 8 8 9 9 8 8 7 7 3 4 6 5 6 7 5 6 7 9 9 9 10 11 11 12
11 4 1 7 9 9 12 7 5 8 13 9 13 10 11 14 13 11 9 5 9 11 5 12 14 11 4 3 5 2 2 7 13 14 16 4 10 6 5 3 2 1 3 4 8 10 11 12 12 10 9 7 8 8 8 7 5 4 5 4 5 6 7 7 8 10 8 6 6 5 2 1 4 3 5 6 10 9 9 10 10 11 10 11 11 11
12 2 3 3 3 8 9 8 9 11 13 9 7 10 17 16 16 15 14 9 6 7 4 8 12 4 3 1 7 11 6 7 13 12 4 11 11 8 5 1 1 3 3 5 8 9 10 10 10 13 13 13 11 11 10 8 6 6 5 4 3 4 5 6 8 9 9 8 8 7 7 9 9 9 9 11 10 9 11 12 9 10 12 12 12 11
5 2 2 7 4 3 5 8 10 10 12 8 6 12 14 14 13 10 11 6 6 4 2 5 5 12 3 11 8 11 8 13 18 3 2 6 8 6 2 4 5 6 7 8 9 11 12 13 12 13 14 14 13 12 9 8 8 7 5 4 3 3 4 4 6 8 8 8 9 11 11 10 10 10 8 7 7 8 7 7 10 10 11 13 13 12
5 1 2 2 5 5 5 7 10 12 8 10 2 2 4 6 7 8 5 6 9 4 5 6 9 10 13 2 4 5 9 17 13 8 3 11 10 4 6 6 7 9 10 10 12 13 14 14 13 13 13 13 13 11 10 10 10 10 9 7 5 3 3 3 5 7 8 9 9 9 10 9 10 10 8 6 7 6 7 7 9 8 8 10 11 10
5 3 4 4 5 5 9 14 3 12 9 1 2 1 1 3 3 3 4 6 3 6 6 4 4 5 8 1 1 6 7 11 8 7 10 13 9 7 7 9 11 12 12 11 10 12 13 13 14 15 16 15 14 13 12 12 11 11 10 9 6 4 3 2 5 6 8 8 8 8 8 9 8 8 7 4 6 7 7 8 8 8 8 9 11 11
0 0 4 7 5 8 8 3 2 10 9 2 5 5 4 3 3 2 3 3 3 3 9 7 8 5 15 2 4 1 5 5 6 11 14 13 10 7 7 13 14 13 12 12 12 14 16 15 15 16 16 19 15 13 14 13 12 12 11 11 10 8 4 3 3 5 6 8 7 7 8 9 8 7 7 6 5 5 5 7 9 8 8 8 9 11
2 2 1 3 9 5 5 5 2 2 4 2 3 0 0 1 1 1 0 2 3 8 8 11 14 8 11 1 2 2 3 3 6 8 12 11 9 8 10 13 12 11 11 10 12 13 13 14 17 17 19 18 19 16 17 16 14 13 13 12 12 10 7 5 3 3 5 6 7 7 8 9 9 8 7 6 6 5 5 7 7 7 7 7 8 9
2 3 2 4 3 4 4 5 3 2 2 1 1 2 5 4 2 3 0 2 3 9 3 8 12 12 9 2 2 0 3 5 1 2 8 10 7 7 11 11 11 10 10 11 11 13 15 16 17 17 18 17 17 18 18 15 14 14 14 14 14 12 10 7 6 4 4 4 5 7 7 8 8 8 7 8 8 7 7 7 6 6 6 7 7 8
4 9 3 1 2 6 5 4 2 3 3 4 3 3 4 3 2 3 3 3 6 8 2 4 4 5 16 11 9 11 11 5 1 5 5 8 11 12 11 12 10 10 12 12 13 13 14 14 14 15 15 15 16 15 16 16 14 14 14 15 14 14 13 10 9 7 6 5 5 5 7 7 7 7 8 8 8 7 6 6 7 6 7 6 7 9
4 4 2 6 1 6 7 7 3 2 6 7 6 3 2 4 3 5 5 2 5 0 2 4 1 9 8 6 15 19 8 10 10 9 12 16 13 12 12 11 11 13 14 13 12 13 14 14 14 14 14 15 14 16 16 16 16 14 14 15 14 13 13 12 11 9 8 7 6 6 6 5 5 7 7 8 8 7 6 6 7 7 7 7 9 9
7 7 4 7 3 7 11 11 5 1 7 7 2 6 3 6 5 10 5 9 9 8 2 3 0 4 1 2 7 7 12 14 12 14 15 14 11 9 9 9 11 13 13 12 13 14 14 14 14 13 13 13 14 16 15 14 14 13 13 14 15 15 16 16 14 11 10 8 8 7 6 6 5 6 6 7 7 7 7 6 7 7 7 8 8 9
10 11 2 4 3 11 8 5 6 6 2 1 1 2 1 5 4 8 8 9 10 8 5 5 6 1 5 4 3 3 13 14 14 14 13 12 10 10 12 13 12 12 12 12 12 13 14 13 13 12 13 13 13 14 13 14 13 13 13 14 15 14 15 15 15 13 12 10 8 8 8 7 7 6 6 6 6 7 7 7 7 8 9 8 8 7
2 6 5 4 2 10 8 8 6 5 5 3 5 6 7 2 7 5 4 2 2 4 14 4 7 12 7 11 9 5 14 11 14 14 13 13 12 13 12 10 11 10 11 11 11 11 11 11 11 10 11 11 12 12 12 13 12 13 12 11 14 16 17 18 16 14 12 12 11 11 10 9 8 8 8 7 8 8 7 7 7 8 8 8 8 7
6 11 5 4 4 8 5 3 2 2 1 8 3 6 3 0 2 3 5 1 4 9 8 4 12 12 5 6 7 10 8 12 11 9 11 10 9 10 9 9 9 10 9 8 9 9 9 9 10 10 9 11 10 10 10 11 8 7 8 11 14 15 17 16 15 15 14 13 11 11 11 11 10 9 8 8 9 8 7 7 7 7 7 8 7 7
2 9 6 9 8 5 1 2 4 4 3 4 2 2 3 4 4 5 1 5 4 8 6 7 14 14 10 8 5 5 3 8 7 6 8 8 8 9 8 9 8 7 8 8 8 8 8 9 10 11 12 11 10 9 8 10 11 12 13 14 14 15 14 13 12 12 12 13 9 8 9 10 9 9 8 8 8 9 9 8 7 8 8 7 7 7
1 8 4 4 3 4 3 5 8 7 3 2 0 3 2 2 7 5 5 1 2 9 7 5 10 10 6 4 4 5 7 4 5 8 9 9 8 6 5 5 5 5 4 4 4 5 6 7 8 8 9 10 10 11 10 11 11 14 12 13 13 13 12 12 12 11 12 11 11 11 11 11 10 10 9 9 8 9 10 9 8 8 8 9 7 7
4 4 11 2 5 1 5 7 7 9 6 4 4 7 2 2 2 2 2 4 7 5 9 8 7 5 1 2 6 7 6 6 6 7 5 5 6 5 6 5 4 5 5 5 5 4 4 4 4 5 5 5 6 6 8 9 9 9 9 10 10 11 11 12 11 10 8 8 10 11 12 11 11 12 10 10 9 8 9 9 9 8 8 7 7 8
3 2 10 4 3 7 9 3 8 11 9 6 10 9 12 7 6 8 9 5 3 5 4 6 7 3 4 3 7 7 5 7 6 7 6 6 6 6 5 5 5 5 4 4 4 3 3 2 2 2 2 2 2 3 4 4 5 8 9 7 7 7 7 7 8 8 9 9 9 10 10 11 10 9 10 11 9 9 9 9 9 9 8 9 9 8
0 3 3 5 8 11 4 3 4 2 4 2 2 3 2 3 1 5 10 5 1 6 6 7 9 4 4 4 7 7 6 6 6 6 7 5 5 5 5 4 4 3 3 3 3 3 4 3 3 4 4 5 5 6 6 6 6 7 7 7 6 7 7 7 7 7 6 7 9 10 9 9 8 9 10 10 10 11 11 10 9 9 9 9 10 9
3 2 5 9 9 9 12 5 3 4 3 4 4 7 5 9 8 8 8 4 8 4 6 6 9 1 3 2 6 7 7 6 4 4 6 5 3 2 3 3 4 5 4 4 3 2 3 4 5 5 6 7 7 8 9 8 8 7 8 9 9 11 11 10 10 9 9 8 8 8 7 7 7 9 10 10 9 12 12 11 10 9 9 9 9 10
3 3 2 5 5 2 4 3 3 2 3 1 3 2 2 5 6 6 2 2 5 6 9 9 10 1 3 4 5 8 7 7 5 3 2 4 4 3 2 2 2 2 3 5 6 6 6 6 7 7 7 8 8 8 8 9 10 10 10 10 10 10 9 9 8 7 7 7 8 8 8 9 9 11 12 12 10 11 11 11 10 9 10 9 10 10
3 2 3 8 8 9 8 9 7 1 2 4 3 2 4 4 5 5 9 6 10 5 12 10 10 4 6 4 6 7 8 7 5 3 3 2 1 2 1 2 1 2 2 4 5 6 7 7 7 7 8 7 7 8 8 8 8 8 8 8 8 8 8 8 8 7 8 8 9 10 12 11 12 12 12 11 10 10 9 8 9 9 8 8 9 10
1 2 3 5 8 10 9 6 2 2 1 4 4 5 7 0 0 2 5 6 8 5 6 5 7 9 6 7 9 6 7 7 7 6 4 3 1 0 2 2 3 4 4 4 4 4 4 5 6 6 6 6 6 6 5 6 6 6 6 7 6 6 6 7 7 8 7 8 8 8 9 9 9 9 9 9 9 9 9 8 8 8 8 8 8 9
1 4 8 10 11 10 9 10 2 1 5 5 5 8 6 9 6 8 6 10 5 9 11 6 9 6 8 13 12 12 4 5 7 6 4 4 5 4 4 4 6 5 5 4 4 4 4 4 5 5 6 6 6 6 6 5 6 6 7 8 7 7 7 5 6 6 5 6 6 6 7 7 7 8 7 8 8 8 9 9 9 9 8 7 7 7
2 8 4 9 8 10 6 3 4 4 4 6 7 7 13 14 11 13 13 12 12 12 15 10 13 15 15 15 17 4 4 2 3 2 3 3 3 5 5 6 6 5 5 5 6 5 5 6 5 6 6 6 6 7 7 6 6 6 7 6 7 7 7 7 7 8 7 7 6 6 6 6 6 7 8 8 8 8 9 9 9 9 8 8 8 6
1 7 5 5 8 7 9 10 7 7 7 9 10 12 13 15 18 16 15 15 17 17 14 17 20 24 20 15 3 3 2 3 0 1 2 4 6 7 6 7 7 6 5 6 6 6 6 6 7 7 7 7 8 8 8 8 8 7 8 8 8 8 8 9 9 9 9 8 8 7 7 7 7 7 8 9 9 9 9 9 9 9 8 8 8 8
1 5 7 2 5 6 6 10 9 9 9 13 12 14 15 18 18 16 17 17 16 18 20 22 24 23 5 7 5 4 1 1 2 4 6 6 6 7 8 8 9 8 7 7 7 8 7 8 7 7 8 8 9 9 9 8 9 9 9 8 8 8 8 8 9 9 9 9 9 9 9 8 8 7 8 8 8 7 7 7 7 7 7 6 6 8
3 4 4 1 7 8 6 10 9 5 7 11 14 15 19 19 17 15 15 11 13 13 16 16 13 12 2 3 2 1 1 3 4 5 5 4 4 6 7 9 9 9 9 8 8 8 8 8 8 8 9 9 9 9 8 8 8 9 9 10 11 10 10 10 10 10 10 10 9 9 9 8 9 8 9 7 7 7 7 7 7 8 7 7 8 6
2 2 2 5 9 9 11 7 4 5 9 11 15 20 20 19 20 19 16 15 17 13 9 10 11 1 3 3 2 1 4 4 6 6 5 5 5 6 8 9 10 10 10 9 8 8 8 8 8 9 9 9 8 8 8 8 8 8 9 10 10 10 10 11 10 11 11 11 10 10 10 9 8 8 8 8 9 9 7 7 7 8 8 8 7 7
5 6 7 4 8 4 11 3 0 5 13 14 2 3 4 11 10 13 12 13 13 10 4 2 2 3 5 4 0 2 3 5 8 7 4 5 7 7 8 9 10 11 11 11 10 9 9 8 8 8 9 10 10 10 9 8 9 9 9 9 9 9 9 9 10 10 10 10 9 11 11 10 9 9 9 8 8 9 9 10 10 9 9 9 8 8
8 8 10 5 9 11 2 4 9 15 15 3 3 2 2 3 3 8 11 12 5 5 4 4 5 4 6 3 1 4 6 7 8 8 9 7 7 8 10 11 11 11 11 10 11 10 9 9 9 9 9 10 10 9 8 8 8 8 9 9 9 9 9 8 9 10 10 9 9 10 9 9 9 9 9 9 9 10 10 10 10 10 9 9 9 9
8 9 4 2 3 2 1 8 9 7 2 4 8 3 1 1 8 9 11 12 7 6 6 4 6 6 5 2 4 5 7 8 6 7 8 8 8 9 11 12 13 13 12 11 11 10 9 9 10 10 10 9 8 8 8 9 8 8 9 9 9 8 7 8 8 9 10 9 9 9 10 9 9 9 9 9 10 9 10 11 10 11 10 9 9 9
13 2 2 7 4 7 6 10 15 9 14 12 11 2 4 3 2 2 5 2 5 4 6 5 6 6 2 4 6 7 2 3 7 9 9 8 9 9 9 11 13 14 14 13 13 12 11 10 10 11 9 8 8 8 7 6 7 8 9 9 7 7 7 8 8 9 10 10 11 9 9 9 9 9 9 10 10 11 12 12 12 11 9 10 11 11
12 13 7 6 5 7 5 9 8 5 7 1 4 1 2 2 3 4 3 7 4 4 3 3 4 2 5 8 8 7 1 5 9 10 8 7 5 7 8 10 11 12 13 15 14 14 13 10 8 9 10 11 10 9 7 7 8 9 10 10 10 9 9 9 11 12 11 11 10 11 11 9 8 8 9 9 10 11 12 12 12 12 10 10 11 12
8 12 9 10 7 4 5 8 9 7 4 7 3 6 3 3 0 2 1 8 3 4 2 2 1 2 3 7 8 5 2 7 9 10 9 10 7 4 6 9 11 12 13 14 14 12 12 12 11 11 11 10 11 11 11 11 9 9 10 10 11 10 11 11 12 12 12 12 12 12 10 8 7 8 8 9 10 10 12 13 12 12 11 11 11 13
5 5 7 7 10 10 10 10 11 5 5 1 3 2 2 3 4 1 10 6 3 4 2 4 4 4 5 7 7 5 5 9 10 10 11 12 8 6 7 10 12 13 13 12 10 9 10 10 11 12 13 13 14 13 12 10 9 11 13 13 13 12 13 14 13 13 12 12 13 11 9 7 6 8 9 10 11 11 12 12 12 11 11 12 12 12
3 1 4 10 11 11 14 10 8 8 4 3 4 4 5 2 1 4 12 1 4 4 5 5 6 8 9 8 6 5 7 9 11 13 13 11 10 11 11 10 10 10 10 10 9 9 10 11 11 12 14 14 14 13 12 10 10 13 13 14 14 15 15 15 14 14 13 13 12 11 9 8 9 10 11 10 11 11 11 11 12 12 12 13 13 13
2 2 2 0 7 11 10 11 11 8 3 5 7 2 6 3 4 10 1 5 3 6 5 9 10 11 10 9 8 8 9 10 11 10 10 10 11 12 10 8 9 10 9 9 8 8 9 11 12 14 15 15 14 13 11 12 13 14 15 14 16 16 16 16 16 16 14 14 13 10 9 10 9 10 10 12 11 11 12 11 11 11 13 12 13 15
3 4 5 6 2 1 2 6 8 9 0 5 4 5 5 3 4 1 1 4 7 6 7 9 9 9 8 8 9 10 10 10 9 9 9 10 10 9 9 9 9 10 11 12 13 12 10 11 13 13 14 14 14 13 12 13 15 15 15 16 19 17 17 16 16 16 14 14 15 14 15 14 14 13 11 11 11 12 13 13 12 12 13 14 15 16
2 2 4 3 3 5 6 8 6 3 4 5 5 3 4 6 2 4 3 8 8 7 6 5 6 4 3 6 8 9 8 8 9 7 7 8 8 9 8 9 9 9 10 11 10 12 11 13 13 14 15 15 12 12 12 12 14 15 17 19 18 17 17 16 16 16 16 15 16 17 16 16 16 15 11 11 12 12 13 14 13 13 13 13 13 14
8 9 7 9 3 5 6 6 2 2 2 4 6 5 7 9 7 5 6 8 9 7 2 4 6 2 1 4 6 7 8 6 6 6 7 9 9 9 9 10 10 10 10 11 11 11 10 12 15 16 18 17 15 13 13 12 13 17 18 17 16 17 17 17 18 18 18 18 18 17 17 17 16 15 13 12 13 14 15 15 14 14 13 13 14 14
4 5 1 2 4 7 9 11 3 4 9 11 8 8 9 10 10 8 8 7 5 1 1 4 2 2 1 1 3 5 5 5 7 8 8 9 9 10 10 10 10 10 10 10 10 11 12 13 13 14 16 18 16 14 13 12 13 17 18 17 16 17 16 17 17 18 19 19 18 18 19 20 19 18 17 17 15 15 15 16 16 15 15 14 15 15
9 5 3 6 5 4 8 9 9 12 12 11 14 11 6 6 8 5 5 5 2 2 2 2 1 1 1 1 4 6 6 5 7 8 9 9 9 9 10 11 11 10 11 11 12 12 12 12 14 16 17 19 17 14 14 15 13 13 14 15 16 16 17 18 19 20 20 20 19 18 18 19 17 17 17 16 15 15 15 15 15 15 16 15 16 15
6 9 6 11 11 10 14 16 13 11 13 12 9 10 12 10 5 2 0 1 2 3 3 2 2 2 1 3 4 5 6 4 6 8 9 8 8 9 9 10 11 13 12 10 12 11 12 12 14 16 17 17 16 15 15 14 15 15 15 15 15 16 19 19 19 19 20 21 19 18 17 17 22 22 17 16 15 15 15 14 14 15 16 15 15 15
3 7 3 3 7 10 12 14 16 16 14 13 13 10 11 9 3 4 3 3 3 3 3 2 1 1 2 3 3 4 6 6 6 8 10 10 9 9 9 11 12 12 12 13 12 10 11 13 15 16 16 17 16 15 15 17 17 15 18 18 18 17 17 20 22 20 21 19 18 18 17 16 16 16 16 16 16 15 15 15 15 15 17 17 14 15
4 10 5 2 9 10 11 13 11 7 10 10 11 10 4 3 3 5 5 3 2 2 1 1 1 1 1 2 3 4 5 7 6 7 9 9 9 10 11 11 11 12 12 11 11 12 13 13 14 16 18 17 15 15 18 18 18 18 17 18 15 16 19 19 19 19 18 16 17 17 17 16 16 16 16 16 16 17 17 20 25 21 18 18 22 28
12 13 9 10 11 12 15 16 12 12 14 17 7 5 3 4 4 4 4 4 3 3 1 0 1 2 2 2 3 4 5 6 8 8 9 8 9 9 9 11 12 12 12 12 13 13 12 14 15 17 19 18 18 18 16 19 19 18 18 14 16 17 17 17 17 17 17 16 16 16 17 17 17 17 16 16 17 17 18 17 17 24 30 30 30 30
Wind_Direction
161 194 188 204 223 222 215 212 225 243 350 346 285 273 271 277 277 268 271 270 258 294 257 263 272 281 283 280 277 274 280 275 271 265 271 278 280 276 270 280 335 353 8 326 271 262 289 297 307 313 304 290 280 260 247 231 224 222 219 205 208 200 199 196 194 197 195 199 204 211 212 215 206 208 206 208 209 209 208 198 192 186 188 189 185 187
196 221 217 224 233 242 241 239 253 274 285 279 275 276 274 261 274 269 283 304 158 251 278 277 282 280 282 280 272 263 257 260 264 284 289 283 275 271 279 357 47 10 328 279 295 316 308 340 336 335 333 328 302 300 249 238 237 231 223 220 214 199 197 203 202 199 199 204 205 204 212 214 213 205 205 212 210 214 211 205 196 194 192 192 189 186
210 222 227 230 241 54 28 328 287 254 260 258 257 268 278 268 273 280 262 275 312 266 283 283 287 290 290 279 270 260 260 264 273 268 270 272 273 278 38 39 5 347 316 314 334 335 14 5 16 13 5 1 346 327 320 304 267 239 223 221 214 204 197 202 201 199 202 202 205 203 209 201 211 213 217 218 218 209 209 204 198 199 197 195 194 189
244 229 236 239 235 245 235 174 232 255 247 252 254 242 253 284 296 297 169 74 153 258 302 309 297 294 263 262 270 280 248 257 258 257 256 250 264 0 19 14 359 308 320 354 7 22 17 25 27 26 23 10 355 359 347 327 290 263 239 226 213 211 204 202 201 202 203 202 199 191 188 174 209 224 201 205 203 197 199 207 199 204 202 199 198 192
237 65 343 245 225 216 240 217 227 252 262 225 232 255 275 265 257 249 290 335 314 280 257 307 283 283 300 157 105 141 261 260 259 251 247 322 60 73 90 84 243 319 23 9 28 18 16 17 23 29 24 16 19 15 5 349 332 309 287 252 223 217 207 205 200 195 194 179 182 192 184 200 213 231 227 214 223 214 209 210 204 205 199 201 202 198
250 144 116 100 188 217 225 237 218 239 258 259 208 224 248 263 276 275 285 330 299 286 81 335 331 293 198 176 9 353 324 283 254 242 19 50 61 73 71 208 319 3 353 17 22 13 12 16 14 27 25 21 17 14 360 349 341 332 323 304 261 233 216 206 203 195 195 201 202 196 198 210 217 226 215 218 215 204 208 209 206 199 198 198 202 201
283 69 189 236 180 152 208 239 237 208 254 270 252 206 245 257 266 279 286 318 283 280 69 359 329 295 187 267 296 276 268 261 261 181 275 54 58 64 92 56 57 52 56 45 39 29 25 17 19 29 30 24 17 5 349 358 3 359 344 330 294 254 235 208 201 187 190 202 204 204 205 210 213 222 226 219 213 211 209 202 203 201 196 201 200 202
185 257 101 86 152 180 205 241 230 197 232 254 86 199 230 248 246 258 265 239 266 343 270 195 214 274 300 174 197 237 227 252 271 294 355 81 81 79 69 67 56 46 33 31 31 30 27 23 17 22 31 30 21 3 2 7 8 8 5 352 336 301 258 204 195 192 198 207 208 213 216 217 221 220 227 198 200 204 203 196 201 198 200 200 203 205
208 130 182 162 184 189 221 230 128 178 194 297 41 54 101 269 261 212 234 265 284 332 303 172 190 260 262 105 252 240 263 270 293 12 28 71 75 91 81 63 46 36 27 19 25 31 32 26 18 23 30 28 24 19 15 10 7 7 5 5 356 335 312 269 203 207 205 213 217 216 219 228 234 238 237 226 198 202 193 200 205 204 201 196 200 203
254 267 203 200 178 220 219 19 104 169 223 94 105 81 86 96 75 206 254 280 272 290 267 150 192 267 287 176 197 56 275 300 341 53 70 80 71 2 46 58 44 36 32 26 26 30 33 25 24 23 28 26 20 17 18 17 15 13 10 7 3 2 343 336 248 227 222 221 226 228 229 234 239 233 237 235 226 211 202 204 206 203 202 200 200 204
62 179 328 193 219 262 68 53 27 332 28 88 154 258 198 168 185 135 62 289 291 248 256 164 191 217 285 66 132 150 9 11 3 76 90 84 83 65 46 48 41 43 40 34 31 30 30 30 31 26 29 22 20 16 17 17 16 14 16 7 9 8 356 354 322 268 248 239 236 240 242 243 244 244 243 241 235 223 209 214 210 205 205 203 205 203
194 134 224 229 52 88 117 98 63 126 138 330 5 312 302 225 166 212 199 167 258 269 132 179 192 194 235 136 327 352 241 247 197 15 33 81 68 41 44 49 42 39 41 39 32 29 25 22 25 28 30 27 24 22 20 17 16 16 15 11 12 13 9 6 357 331 293 272 256 254 259 259 257 254 255 251 250 236 224 220 221 208 203 203 204 204
224 211 190 72 233 186 156 209 129 126 156 197 221 266 271 279 337 248 151 234 210 254 61 4 23 271 239 253 301 329 310 52 229 0 46 84 65 57 53 50 44 38 39 36 31 27 26 27 20 24 27 26 26 25 22 19 19 22 22 17 13 9 7 13 10 358 333 305 287 278 273 273 273 266 261 260 253 251 236 227 226 212 212 208 206 208
289 80 149 206 127 209 187 208 172 204 177 187 205 193 224 289 264 274 288 267 288 353 59 61 48 249 290 275 228 246 257 49 44 76 74 69 66 59 52 45 42 39 35 28 27 30 31 26 21 21 24 27 26 23 22 20 20 19 21 21 18 16 15 16 19 9 351 333 314 302 289 281 280 281 273 266 261 252 245 234 228 224 222 219 216 214
296 280 198 157 188 143 189 212 215 70 162 195 202 194 243 258 266 284 281 276 282 300 76 219 81 227 132 53 27 41 52 54 67 75 74 75 72 67 61 50 43 43 39 33 30 27 27 28 25 22 23 26 27 24 22 19 18 17 20 20 20 19 18 21 16 11 2 349 332 318 302 287 273 261 264 273 271 263 252 236 231 231 227 228 225 220
223 253 169 197 83 156 181 209 113 116 74 162 174 33 18 235 103 239 256 262 279 292 270 173 216 327 222 8 191 134 75 76 74 68 71 69 62 56 46 34 31 30 32 33 36 31 27 26 26 26 24 23 22 24 25 23 18 18 16 18 22 25 26 27 21 15 5 354 343 329 312 300 287 275 267 256 256 265 260 249 238 237 232 232 233 226
178 251 150 97 10 189 189 135 200 161 250 168 126 198 218 90 169 256 261 258 30 288 257 237 259 255 265 252 276 133 98 83 69 56 51 49 47 48 45 30 29 31 30 30 31 30 25 24 25 26 27 25 23 22 24 21 19 21 21 21 23 25 26 27 24 21 15 7 356 349 336 323 310 296 282 279 272 256 251 252 248 245 244 238 234 234
267 282 106 138 214 238 48 329 14 347 43 99 214 230 61 351 46 180 251 107 220 237 268 271 263 275 277 292 114 112 99 92 84 75 69 54 52 57 51 37 32 29 29 29 30 29 26 23 21 22 26 27 24 22 18 18 16 19 28 27 33 32 30 24 21 21 18 13 9 360 351 338 323 310 297 287 280 273 261 242 247 250 246 241 236 232
244 278 231 196 210 87 9 152 258 156 276 243 247 3 205 224 238 187 159 226 210 238 261 215 269 268 258 238 143 121 107 67 73 80 74 65 56 57 50 45 35 23 24 26 24 20 15 17 18 20 19 19 18 14 13 11 15 17 21 23 29 29 27 24 21 20 18 18 16 7 1 350 337 326 315 305 296 288 273 263 250 248 251 251 237 231
168 263 271 40 175 119 112 171 222 193 140 115 327 244 46 307 247 198 201 244 252 261 253 222 225 263 244 268 233 109 72 59 78 64 57 56 62 63 74 62 53 47 39 32 26 16 16 15 17 15 15 13 13 12 10 12 16 20 19 19 18 21 24 25 25 19 18 14 16 14 15 9 0 351 340 333 323 308 295 285 276 262 252 250 248 233
254 194 263 161 339 55 213 179 225 200 189 190 217 230 191 215 4 340 351 183 216 245 237 264 239 227 360 70 107 86 76 71 70 78 72 74 70 67 53 45 32 29 24 13 16 11 2 359 359 360 356 2 17 21 21 22 21 17 17 18 19 20 13 17 15 14 15 10 13 14 15 10 7 0 352 348 338 321 310 304 296 286 273 268 250 241
239 212 239 222 207 201 238 159 202 211 223 210 194 207 209 183 204 217 243 148 212 206 223 229 239 239 91 38 102 115 108 103 94 101 84 59 59 52 51 42 32 25 23 7 357 354 349 346 303 264 253 269 333 8 9 3 14 22 23 16 12 16 21 12 10 5 0 6 14 19 14 10 5 359 359 359 359 346 335 324 316 308 297 280 271 252
28 3 332 280 255 262 289 82 7 331 89 56 339 317 338 335 12 239 258 222 187 242 261 250 275 193 15 358 97 113 118 111 109 100 99 91 68 59 45 38 29 37 21 6 352 354 350 342 327 326 341 354 9 10 12 15 20 19 17 17 15 18 18 17 12 12 7 7 10 10 10 9 6 1 4 9 11 4 353 343 331 322 307 295 286 270
171 237 255 248 250 262 268 127 76 29 26 303 221 224 235 234 225 243 249 288 264 217 200 217 237 168 155 114 111 109 106 94 92 106 122 120 124 107 87 40 30 20 7 359 352 319 320 335 347 359 4 6 9 7 9 9 8 10 13 13 9 12 9 9 7 4 6 4 6 8 5 6 2 8 10 11 9 6 1 354 347 334 322 308 294 286
304 260 300 311 292 258 248 148 139 67 125 185 278 339 313 280 266 265 295 86 272 217 251 253 256 250 144 170 137 129 127 119 116 110 141 132 135 131 110 90 43 6 356 357 356 352 356 6 8 7 6 6 3 5 2 2 3 2 3 5 6 2 359 0 358 356 357 356 358 1 3 2 3 6 8 8 1 358 355 356 355 346 333 325 312 299
230 281 268 265 255 259 262 267 274 26 16 345 322 327 8 5 352 330 259 245 248 179 215 238 255 269 93 163 161 160 143 132 122 100 84 66 71 72 55 48 35 356 348 349 342 353 355 348 348 352 356 353 355 355 354 353 356 354 351 354 355 350 349 347 351 349 351 353 355 357 1 1 0 1 358 355 354 353 346 337 342 343 339 334 319 307
220 222 205 245 278 281 291 312 185 122 291 264 306 327 299 272 204 268 278 272 261 326 298 287 296 302 274 228 236 204 147 150 159 160 168 159 135 95 330 323 327 322 314 323 324 313 318 327 334 336 332 334 332 335 337 338 339 339 337 334 339 340 335 338 340 343 347 349 351 350 355 354 353 350 349 347 342 338 339 339 334 332 332 332 324 314
235 251 226 242 248 260 270 281 330 113 267 266 255 267 272 271 268 272 258 260 358 325 267 257 267 265 269 277 273 286 110 129 144 157 168 179 196 216 219 240 254 255 265 264 281 283 296 298 299 311 317 319 325 324 326 328 328 331 330 330 330 333 333 325 326 322 328 330 336 341 343 344 337 339 338 336 336 335 337 337 337 336 329 322 319 317
250 266 259 259 260 266 278 243 266 260 247 252 257 266 275 279 272 261 262 271 277 263 276 303 294 282 279 276 285 346 86 81 106 98 167 203 227 228 246 251 256 260 268 275 282 296 297 303 309 311 314 314 316 322 323 324 325 328 327 320 321 325 329 329 325 325 327 328 330 331 334 331 331 328 334 329 332 333 335 335 332 328 325 324 324 315
229 257 245 271 266 272 279 277 276 281 282 275 262 263 266 269 269 270 271 267 262 262 266 272 271 270 272 285 65 96 99 87 226 273 244 230 234 235 241 254 260 277 289 288 288 288 292 296 303 309 312 314 319 323 323 322 324 324 321 319 322 325 328 333 328 324 324 326 326 326 326 326 326 329 328 329 328 330 328 326 324 323 320 316 316 317
217 266 108 232 277 260 262 272 277 278 280 272 269 269 264 261 263 265 267 260 263 258 256 256 257 263 271 87 110 101 154 197 244 248 235 244 246 243 249 255 255 258 271 278 280 281 277 280 282 288 296 303 312 314 317 315 317 321 319 320 321 321 326 326 321 319 319 319 322 322 320 320 321 321 322 316 320 316 319 317 316 313 310 310 311 314
310 262 335 18 295 274 273 277 288 302 280 273 275 264 257 254 259 249 250 245 250 255 251 256 254 255 103 81 62 224 184 245 288 297 294 277 260 254 256 261 262 259 261 268 274 274 275 273 277 279 282 286 290 297 300 305 308 311 314 318 321 322 325 325 321 319 316 316 318 318 314 313 315 315 312 314 307 309 307 308 305 305 303 303 309 303
240 276 283 287 282 259 274 287 309 299 293 271 244 243 249 251 244 250 250 254 251 260 267 256 264 32 139 155 78 111 191 290 276 295 296 294 273 258 269 274 275 273 266 267 272 271 272 273 270 269 268 267 265 268 276 287 292 294 301 306 308 314 313 311 311 310 312 314 316 315 310 306 306 305 306 307 312 309 303 293 294 296 301 301 300 299
229 232 255 237 258 279 283 325 61 287 262 252 3 76 234 259 272 265 255 245 254 248 272 327 105 123 127 147 108 340 345 309 318 299 297 287 301 293 275 271 269 268 265 262 265 271 270 270 265 261 260 262 265 265 269 268 267 265 267 266 263 267 270 281 292 298 301 304 306 308 308 306 307 305 306 308 306 307 304 305 300 298 299 297 298 299
235 238 249 242 254 269 56 41 283 254 252 344 60 346 41 348 286 265 267 265 257 96 122 134 139 153 170 123 276 319 304 296 282 288 290 288 278 281 288 288 287 281 274 268 266 266 262 264 269 267 263 257 253 254 257 257 251 255 255 253 253 252 264 270 278 284 287 290 291 295 299 299 300 302 305 307 308 308 305 300 299 297 296 296 293 294
233 238 230 232 219 2 224 244 250 249 67 301 277 222 113 219 259 269 275 261 229 209 194 189 181 156 171 213 294 287 295 303 301 284 278 280 283 284 291 296 296 293 285 276 269 263 267 264 263 265 265 259 252 247 246 254 262 267 265 266 263 262 259 261 263 268 275 278 282 286 291 294 295 296 300 302 302 298 297 294 292 294 296 293 291 286
233 249 195 256 198 235 229 230 238 320 320 291 280 199 169 234 237 241 281 346 125 213 179 188 177 180 223 302 325 318 333 321 293 282 266 255 267 269 275 285 292 295 295 290 281 272 265 269 270 270 273 275 268 268 273 290 295 285 281 279 275 273 272 269 262 261 264 265 268 271 273 277 281 287 293 299 299 298 299 298 296 294 297 294 290 287
220 221 224 219 266 212 227 261 274 262 254 310 98 305 339 287 351 313 69 291 179 171 166 143 150 178 326 320 315 311 20 291 286 288 295 290 257 270 278 280 281 284 286 284 279 274 272 278 300 318 317 309 304 306 314 320 312 301 291 286 287 285 282 277 274 276 272 269 269 267 266 265 264 270 278 286 290 294 298 297 296 294 295 291 291 288
221 226 228 227 246 253 228 232 243 251 246 93 218 150 245 128 184 229 288 293 87 168 208 115 308 269 256 282 287 279 256 278 279 290 300 306 289 254 274 286 290 289 291 291 294 307 330 334 331 322 316 311 311 317 325 324 313 299 293 291 291 286 279 276 278 277 276 277 278 275 269 263 256 261 268 272 277 281 287 289 290 292 294 290 287 282
165 204 197 230 229 231 244 247 249 244 265 218 206 243 174 120 140 294 295 291 97 237 200 167 222 248 254 249 260 261 259 284 288 298 312 306 303 297 292 295 297 301 307 318 328 343 334 329 328 324 321 317 312 316 319 321 313 301 297 295 296 291 286 288 287 283 286 287 284 279 271 261 252 257 261 267 274 278 279 280 282 282 285 288 288 288
160 281 213 218 229 236 237 249 260 266 248 209 216 226 118 132 71 264 253 302 171 201 209 198 224 249 260 261 241 245 236 260 277 289 298 304 305 303 307 309 315 326 326 330 331 340 330 324 320 314 312 308 311 317 321 323 316 306 304 304 302 294 301 304 301 302 298 292 287 279 271 268 271 270 270 270 275 276 275 273 276 280 282 284 284 282
272 160 293 319 227 236 238 251 249 271 267 255 248 100 139 139 237 250 271 119 208 224 199 200 231 244 252 253 256 261 275 277 283 286 288 294 300 304 309 331 335 323 318 318 318 326 325 317 312 312 310 312 319 325 329 333 323 315 313 312 305 308 313 309 308 305 300 295 289 278 273 276 273 270 272 277 277 275 275 273 273 277 283 282 281 283
201 146 224 214 188 289 245 252 264 263 134 176 193 72 204 190 255 87 248 230 195 222 236 229 225 234 231 256 256 268 276 277 278 282 290 296 300 306 319 324 322 319 320 324 325 331 335 322 317 315 313 317 324 330 333 334 322 316 316 309 310 316 312 311 310 307 303 298 294 290 287 284 281 280 279 277 276 276 276 279 280 277 278 276 274 271
202 226 236 240 176 240 222 215 215 236 231 197 178 220 201 209 303 322 311 305 304 302 294 309 287 280 258 256 272 275 275 279 283 288 298 295 297 305 311 314 315 316 316 317 322 329 340 328 323 320 316 316 321 329 331 332 319 313 311 308 316 316 314 315 317 316 310 303 297 295 291 289 288 284 278 279 280 277 277 276 277 278 274 275 273 275
185 209 217 253 187 180 233 253 188 161 246 174 193 247 269 275 268 269 280 278 287 288 342 287 286 314 170 256 261 266 274 272 286 303 298 296 305 308 314 312 313 314 317 320 327 337 342 331 322 318 314 313 322 329 326 328 321 314 311 315 323 319 319 317 315 311 304 301 299 296 295 294 291 288 285 284 283 281 279 277 276 276 273 270 270 268
245 235 351 341 246 255 268 261 276 248 251 262 242 233 251 266 267 267 266 279 270 290 307 269 274 258 181 220 263 269 261 289 300 295 295 296 300 302 303 304 309 317 321 328 328 335 333 325 318 313 311 312 322 329 325 329 329 316 309 313 313 311 309 308 307 301 298 297 293 292 295 293 290 286 282 282 278 275 274 274 274 273 274 271 266 263
244 198 172 231 251 259 259 247 215 246 259 253 261 265 244 223 256 273 274 260 274 120 144 126 199 181 167 212 260 277 285 293 288 290 292 293 295 300 307 310 314 322 329 325 327 335 330 334 322 317 318 312 319 325 319 318 312 303 305 307 307 306 305 303 302 299 296 295 295 295 293 289 288 288 286 280 275 270 268 265 264 264 265 264 263 263
265 167 207 230 243 234 254 262 261 253 251 256 265 270 268 261 221 120 201 78 103 106 108 122 129 200 178 270 280 286 289 299 292 293 297 298 303 307 310 314 319 319 321 327 327 338 332 325 318 314 315 310 313 314 310 306 305 304 303 300 300 302 303 299 297 296 295 295 295 293 293 290 287 286 285 282 277 274 272 267 263 265 262 260 259 262
193 103 215 181 218 239 254 264 266 268 268 260 251 240 245 258 247 147 140 129 127 138 132 129 92 295 295 289 309 302 301 296 295 297 299 304 307 310 313 315 316 318 323 326 324 332 324 317 313 309 306 302 304 302 301 302 302 301 302 302 305 303 298 297 297 295 294 294 294 293 294 291 289 288 287 285 282 275 272 271 271 269 269 263 261 261
179 234 195 150 249 247 245 248 241 250 269 262 240 237 214 98 165 150 138 143 151 153 156 190 212 192 291 305 321 314 297 296 302 305 300 301 303 308 312 315 319 319 316 317 315 316 313 311 308 303 300 297 299 303 304 300 300 299 297 300 297 298 296 296 296 295 294 293 292 293 292 291 290 289 287 285 285 285 280 271 268 267 267 270 264 264
213 226 215 222 232 248 243 242 232 239 262 266 277 105 110 131 144 169 177 171 144 129 108 189 282 274 271 278 325 312 299 301 304 311 301 300 302 309 313 319 318 315 312 316 314 310 307 306 303 303 301 303 307 304 300 298 297 296 296 295 297 296 292 293 294 293 293 292 290 290 291 290 289 287 285 284 283 281 281 283 273 266 266 265 268 267